Wind_Speed
7 4 4 4 4 4 5 6 7 7 7 9 11 12 14 16 17 17 16 14 13 12 12 13 14 15 17 19 21 22 24 26 27 28 29 29 29 30 30 30 30 29 29 30
5 4 4 3 3 4 5 4 4 5 6 7 7 8 11 11 11 11 10 9 8 8 9 11 13 15 17 19 21 23 25 26 27 28 28 29 29 29 29 29 29 29 29 29
5 4 3 1 1 4 4 3 3 5 4 4 6 5 7 5 3 4 4 3 3 5 7 10 13 16 18 20 21 23 24 26 27 28 29 29 30 30 30 30 30 30 30 30
5 4 2 2 2 3 3 3 3 4 4 5 4 4 2 2 3 3 2 1 2 4 7 10 12 15 16 18 20 21 23 24 25 26 27 28 29 29 30 31 31 31 31 30
7 5 3 2 4 5 5 4 4 3 4 4 4 3 2 2 3 3 2 1 3 5 7 9 12 14 16 17 18 20 21 22 23 24 25 26 26 27 28 29 30 30 30 30
7 5 4 4 6 6 6 5 3 2 2 3 4 4 3 3 2 1 1 2 4 5 7 10 12 14 15 17 19 20 22 22 23 24 25 25 25 26 27 27 28 29 29 30
7 6 6 6 6 7 7 7 5 3 3 2 1 2 2 1 1 2 3 4 5 7 9 11 12 14 16 18 20 22 23 24 24 25 26 26 26 26 27 27 28 29 30 31
7 7 6 6 6 7 8 9 8 6 4 4 4 3 4 4 5 6 7 7 8 9 11 12 14 15 17 19 22 23 25 26 26 27 27 27 27 27 28 29 30 31 32 33
7 7 7 7 7 8 9 9 9 7 5 5 5 5 6 8 9 10 10 10 10 11 12 13 15 17 19 21 24 26 27 28 29 29 29 30 30 30 31 32 32 33 34 35
8 8 8 9 9 8 9 10 9 8 6 5 5 6 8 10 12 12 12 12 12 13 14 15 17 19 22 24 26 29 30 30 31 31 32 33 33 34 34 35 36 37 38 38
10 9 9 10 10 10 10 10 11 10 9 7 6 6 9 10 11 12 13 13 14 15 16 18 20 22 24 26 29 30 31 32 32 33 34 35 36 36 37 38 39 39 40 40
11 10 10 11 11 11 11 11 12 11 9 8 8 7 9 11 12 13 14 15 17 18 19 20 22 24 26 28 30 31 32 33 34 35 36 37 38 38 39 40 41 42 42 42
12 11 11 11 12 13 13 13 13 12 11 10 11 11 11 12 13 14 16 17 19 20 21 22 24 25 27 28 30 32 33 34 35 36 37 38 39 40 41 42 43 44 44 43
12 11 11 12 14 15 15 15 15 14 13 13 13 14 14 15 16 17 19 21 22 23 23 24 25 26 28 29 31 33 35 36 37 38 39 40 41 42 43 44 45 46 45 45
11 11 11 12 13 14 13 14 15 15 14 15 15 16 17 18 19 20 22 23 24 23 24 24 25 27 29 31 33 35 37 37 39 40 41 41 42 43 44 45 46 47 46 46
12 12 12 12 14 14 13 13 15 15 15 16 17 17 19 20 21 23 24 25 24 24 24 25 27 29 31 34 36 38 39 39 40 41 42 42 43 44 45 46 47 47 47 47
12 12 11 11 13 13 13 12 13 14 15 16 16 18 21 23 24 25 25 25 25 25 26 27 29 31 34 36 38 40 40 41 41 42 42 43 45 46 47 48 48 48 47 47
12 12 11 11 12 11 10 12 13 13 14 15 16 19 22 24 25 26 26 25 25 26 27 29 31 34 36 38 40 41 41 42 42 43 43 45 46 47 48 49 49 48 48 47
13 13 13 13 12 9 8 12 13 13 13 15 17 20 22 24 25 25 25 26 27 28 29 31 33 36 38 40 41 42 42 43 43 44 45 46 47 48 49 49 49 48 47 46
16 16 16 16 14 9 11 14 14 14 14 17 19 21 22 24 25 25 26 27 28 29 31 33 35 38 40 41 42 42 43 43 44 45 47 48 49 50 49 49 49 48 47 45
18 18 19 18 16 15 16 17 17 18 19 20 20 22 23 25 26 26 27 28 30 31 33 35 38 40 41 42 43 43 44 44 45 47 49 50 51 51 50 49 49 47 45 44
21 21 21 21 20 21 21 21 21 22 22 23 24 25 25 26 27 28 29 30 32 34 36 38 40 41 43 43 43 45 46 47 49 50 52 52 52 51 50 49 48 46 44 43
24 25 26 25 24 24 25 26 25 26 26 27 28 28 28 28 29 30 31 33 34 36 38 40 41 42 43 43 45 46 48 50 52 53 54 54 54 52 50 48 46 44 43 41
24 26 29 29 27 28 28 29 29 29 30 30 31 31 32 32 32 32 34 35 36 38 39 40 41 42 43 44 46 48 50 52 54 55 55 56 54 52 49 46 44 42 41 40
25 29 31 31 30 31 30 31 31 31 32 32 33 34 34 34 34 35 36 37 38 39 40 40 42 43 45 46 48 50 52 54 56 56 57 56 54 50 47 45 43 41 40 39
27 31 33 33 33 34 33 32 33 33 33 34 36 36 36 37 37 38 38 38 39 40 40 41 43 45 47 48 50 52 55 57 57 58 57 55 51 48 45 43 42 41 40 38
Wind_Direction
3 357 330 321 289 268 268 271 273 286 299 297 290 286 281 277 272 268 267 270 275 278 290 300 307 311 313 314 315 316 316 316 314 313 311 310 308 307 305 303 301 299 298 296
358 356 342 319 291 277 275 289 298 300 303 305 297 293 294 283 270 262 260 264 277 291 306 314 318 321 322 322 322 322 320 318 317 315 314 312 310 308 306 303 301 300 298 297
354 359 1 347 286 275 290 303 316 318 316 320 314 316 315 293 256 227 234 253 288 314 323 327 328 327 326 326 325 322 320 318 316 314 311 309 307 305 303 302 301 299 297 296
12 17 12 347 330 300 308 323 333 342 351 348 342 347 9 85 138 150 158 17 338 331 331 331 329 328 327 325 323 320 318 317 315 313 310 308 306 305 304 303 302 301 300 298
357 3 359 328 332 328 318 315 329 348 3 26 32 33 65 88 114 125 113 351 323 322 324 326 327 327 326 325 325 325 324 323 323 322 320 317 314 312 310 309 307 306 304 302
337 339 337 326 330 329 323 317 315 332 353 39 43 43 79 91 86 115 285 309 310 311 315 320 324 326 328 331 331 332 332 331 331 330 330 328 325 323 320 318 316 314 311 309
317 318 315 316 323 330 333 331 323 304 292 299 345 43 39 352 319 309 296 298 301 304 311 318 325 330 334 337 339 340 340 340 339 338 336 335 333 330 328 325 323 320 316 313
307 308 307 307 312 321 332 333 329 316 291 261 254 272 301 299 294 293 292 294 298 303 310 318 325 332 337 340 343 345 345 343 342 340 339 338 336 333 331 328 325 323 319 315
295 298 305 306 308 312 321 327 324 316 293 261 253 263 278 282 283 283 287 293 299 305 312 322 330 335 340 343 345 346 345 343 341 340 339 338 337 335 333 331 328 325 321 317
293 293 299 303 304 305 309 315 318 316 306 278 262 263 270 273 277 281 286 294 304 312 320 328 335 339 342 345 345 344 343 341 340 339 338 337 337 336 334 333 330 327 324 320
294 290 291 296 300 297 299 301 304 306 304 295 284 281 278 282 284 287 293 303 313 321 328 334 338 341 342 343 342 340 339 338 337 337 336 336 336 335 334 333 331 328 326 322
295 290 287 288 288 286 286 290 294 296 296 295 298 305 294 296 298 301 307 315 322 328 333 337 338 340 340 339 337 336 335 335 334 334 334 334 334 333 332 331 330 328 326 324
295 292 285 275 274 276 278 284 290 291 290 294 305 312 308 309 311 313 317 322 327 332 335 336 336 336 335 334 333 332 332 332 332 332 332 332 331 331 330 329 329 328 327 325
296 296 289 278 275 274 276 279 282 286 290 296 304 309 311 312 315 318 322 327 330 333 333 332 331 331 331 331 331 331 331 331 330 331 331 330 330 329 328 328 327 327 326 324
299 298 294 287 285 286 284 279 277 282 287 292 301 305 308 309 313 318 323 325 327 328 328 327 327 328 329 330 330 331 330 330 329 329 329 329 328 327 327 326 326 325 324 323
293 292 291 292 294 298 295 286 281 284 289 293 298 301 302 306 312 316 320 321 322 324 325 326 327 328 329 330 330 330 329 328 328 328 328 328 327 326 325 324 324 323 322 322
284 284 285 289 297 302 300 294 293 294 295 296 296 297 300 306 310 313 316 318 320 322 324 325 327 328 328 329 329 328 328 327 327 327 328 328 327 325 324 323 322 322 321 321
281 282 284 291 295 299 301 298 299 300 302 298 297 300 303 307 311 313 315 317 319 321 323 324 325 326 327 327 327 326 325 325 326 326 327 327 326 324 323 322 321 321 320 320
281 281 284 291 293 288 296 300 301 304 308 302 303 304 305 309 311 313 315 317 319 320 321 322 323 324 324 324 325 324 324 324 325 326 326 326 326 324 323 321 320 320 320 321
272 274 281 287 293 288 306 303 304 302 306 302 302 302 305 308 311 314 315 317 317 318 319 320 321 321 322 323 323 324 324 325 325 326 326 325 325 324 322 321 320 320 321 321
269 273 278 284 290 296 305 306 304 305 303 302 301 302 306 309 311 313 314 315 315 315 316 317 319 320 321 323 323 324 324 325 326 326 326 325 325 323 322 321 321 321 321 322
271 276 279 284 290 297 300 301 301 301 302 302 302 303 306 308 309 310 311 311 312 313 314 316 317 319 321 323 324 325 325 324 325 325 325 325 324 323 321 321 322 322 322 323
271 276 280 283 287 293 294 296 298 300 302 302 302 304 305 307 307 307 307 308 310 311 313 315 317 319 321 323 325 326 326 325 325 324 324 325 324 324 323 323 323 323 324 324
272 276 279 282 286 288 289 292 295 297 300 301 302 302 302 303 303 303 305 307 309 310 312 315 317 319 320 322 324 325 325 325 325 324 323 324 325 325 324 324 325 325 325 326
274 275 276 278 282 282 284 288 290 292 296 297 297 297 298 298 300 301 303 305 307 310 312 314 317 319 320 321 323 324 324 324 324 323 323 325 326 326 325 325 326 326 326 326
271 273 276 279 282 283 285 286 288 291 293 293 293 294 295 296 297 298 300 303 305 307 309 312 315 317 318 318 320 321 322 323 323 323 324 325 327 327 327 327 326 327 327 327
Height
5870 5869 5868 5867 5867 5868 5867 5867 5866 5866 5865 5863 5862 5860 5858 5856 5855 5855 5855 5855 5855 5855 5856 5856 5855 5854 5852 5850 5849 5846 5844 5841 5839 5836 5834 5832 5829 5827 5824 5823 5821 5819 5817 5814
5872 5870 5869 5868 5868 5868 5868 5867 5866 5865 5863 5861 5859 5857 5855 5852 5851 5851 5851 5852 5853 5854 5854 5854 5853 5851 5849 5847 5845 5842 5839 5837 5834 5831 5828 5826 5823 5821 5818 5816 5814 5812 5810 5807
5871 5871 5869 5868 5868 5868 5867 5866 5865 5863 5861 5859 5857 5856 5853 5850 5848 5849 5850 5851 5852 5853 5853 5852 5851 5849 5847 5844 5842 5839 5836 5833 5829 5826 5823 5820 5817 5814 5812 5809 5806 5804 5802 5800
5871 5870 5869 5868 5868 5867 5866 5865 5864 5862 5860 5858 5856 5854 5852 5850 5849 5849 5851 5851 5852 5853 5852 5851 5849 5848 5845 5843 5840 5837 5834 5830 5826 5822 5818 5815 5811 5808 5805 5802 5799 5796 5794 5792
5871 5870 5869 5868 5868 5866 5866 5865 5864 5862 5860 5858 5856 5854 5853 5851 5851 5851 5852 5852 5853 5852 5851 5850 5848 5846 5844 5841 5838 5834 5830 5826 5822 5818 5813 5809 5805 5802 5798 5795 5792 5789 5786 5784
5871 5870 5869 5868 5867 5866 5865 5864 5863 5861 5860 5859 5857 5856 5855 5853 5853 5853 5853 5853 5853 5852 5851 5849 5847 5845 5841 5838 5834 5830 5826 5821 5817 5812 5808 5804 5800 5796 5792 5788 5785 5781 5778 5775
5870 5869 5868 5867 5866 5865 5864 5863 5862 5861 5860 5859 5858 5857 5857 5855 5854 5854 5853 5853 5852 5851 5849 5847 5845 5842 5838 5834 5830 5826 5821 5816 5812 5807 5803 5799 5795 5791 5787 5783 5779 5775 5771 5768
5870 5869 5867 5866 5865 5864 5863 5862 5861 5860 5859 5858 5857 5857 5857 5855 5854 5853 5853 5852 5850 5849 5847 5845 5842 5838 5835 5830 5826 5821 5816 5812 5807 5803 5798 5794 5790 5785 5781 5777 5773 5769 5765 5760
5868 5868 5866 5865 5864 5863 5861 5860 5859 5859 5857 5857 5856 5856 5856 5854 5853 5852 5851 5850 5848 5847 5845 5842 5838 5834 5830 5825 5820 5816 5811 5807 5802 5798 5793 5789 5784 5780 5775 5771 5766 5762 5757 5753
5867 5866 5865 5864 5863 5862 5861 5859 5858 5857 5856 5855 5855 5854 5853 5851 5850 5849 5848 5847 5845 5843 5841 5837 5833 5828 5824 5819 5815 5811 5806 5802 5797 5793 5788 5783 5779 5774 5769 5764 5759 5754 5749 5743
5864 5864 5863 5862 5860 5860 5859 5858 5857 5855 5854 5854 5853 5854 5851 5849 5847 5846 5845 5843 5841 5838 5835 5831 5827 5822 5818 5814 5810 5806 5802 5797 5793 5788 5783 5777 5772 5767 5761 5756 5751 5745 5740 5734
5861 5861 5860 5859 5858 5857 5857 5856 5855 5854 5853 5851 5850 5853 5848 5846 5844 5842 5840 5838 5836 5833 5829 5825 5821 5817 5813 5809 5805 5801 5797 5792 5788 5782 5777 5771 5765 5760 5754 5748 5743 5737 5731 5724
5859 5858 5857 5857 5857 5856 5854 5853 5852 5851 5850 5849 5847 5849 5844 5842 5840 5838 5836 5833 5830 5827 5823 5819 5816 5812 5808 5805 5801 5796 5792 5787 5782 5776 5770 5764 5758 5752 5746 5740 5734 5727 5721 5714
5856 5855 5854 5854 5852 5851 5851 5850 5849 5848 5847 5845 5844 5843 5841 5838 5836 5833 5831 5828 5824 5821 5818 5815 5811 5808 5804 5800 5795 5791 5786 5780 5775 5769 5763 5757 5751 5744 5738 5732 5725 5718 5711 5704
5853 5852 5850 5849 5848 5847 5847 5846 5845 5844 5843 5842 5841 5839 5837 5834 5831 5828 5825 5823 5820 5817 5814 5810 5807 5803 5799 5794 5789 5784 5779 5774 5768 5762 5756 5750 5743 5736 5730 5723 5716 5708 5701 5694
5851 5849 5848 5847 5845 5844 5843 5842 5840 5840 5839 5838 5836 5835 5832 5829 5826 5824 5821 5818 5815 5813 5809 5806 5801 5797 5793 5788 5783 5778 5773 5767 5761 5755 5748 5742 5735 5728 5721 5714 5706 5699 5691 5684
5848 5847 5846 5845 5843 5841 5840 5839 5837 5836 5835 5834 5832 5831 5827 5824 5821 5819 5816 5813 5811 5808 5804 5800 5796 5791 5787 5782 5777 5772 5766 5760 5754 5747 5741 5734 5727 5719 5712 5704 5697 5689 5681 5673
5845 5844 5843 5842 5842 5840 5840 5836 5834 5832 5831 5829 5827 5825 5822 5819 5817 5814 5811 5808 5805 5802 5798 5794 5790 5786 5781 5776 5771 5765 5759 5753 5746 5739 5732 5725 5718 5710 5703 5695 5687 5679 5671 5663
5842 5841 5840 5839 5837 5836 5836 5833 5831 5829 5828 5825 5823 5821 5817 5814 5812 5809 5806 5803 5800 5796 5793 5789 5784 5779 5775 5770 5764 5758 5752 5745 5738 5731 5724 5717 5709 5701 5693 5685 5676 5668 5660 5652
5838 5837 5837 5835 5833 5832 5833 5829 5827 5826 5824 5822 5819 5816 5813 5810 5807 5804 5801 5797 5794 5790 5787 5782 5778 5773 5768 5763 5757 5751 5744 5737 5730 5723 5716 5708 5700 5692 5683 5675 5666 5658 5650 5641
5834 5833 5832 5830 5828 5827 5827 5824 5823 5822 5819 5816 5813 5810 5807 5804 5802 5798 5795 5791 5788 5784 5780 5776 5771 5766 5761 5755 5749 5743 5736 5729 5722 5715 5707 5699 5691 5682 5673 5665 5656 5648 5640 5632
5827 5827 5825 5824 5823 5824 5821 5818 5817 5815 5813 5810 5807 5805 5802 5799 5796 5792 5789 5785 5781 5777 5773 5769 5764 5759 5753 5747 5741 5734 5728 5721 5713 5706 5698 5689 5681 5672 5664 5655 5646 5638 5630 5622
5822 5821 5819 5819 5819 5817 5814 5812 5810 5808 5806 5804 5801 5798 5795 5793 5789 5786 5782 5778 5774 5770 5766 5761 5756 5751 5745 5739 5732 5726 5719 5711 5704 5696 5688 5679 5670 5662 5653 5645 5637 5628 5621 5613
5817 5814 5812 5811 5811 5810 5808 5805 5804 5801 5799 5797 5794 5791 5789 5786 5782 5779 5775 5771 5767 5762 5758 5753 5748 5742 5736 5730 5724 5717 5710 5702 5695 5687 5678 5670 5661 5652 5643 5635 5627 5620 5612 5605
5811 5807 5804 5803 5803 5802 5801 5799 5796 5794 5792 5790 5787 5784 5781 5778 5775 5771 5768 5763 5759 5754 5749 5744 5739 5733 5727 5721 5715 5708 5701 5693 5685 5677 5668 5660 5651 5642 5634 5626 5618 5612 5605 5597
5802 5799 5796 5796 5795 5793 5793 5791 5789 5787 5785 5782 5779 5776 5773 5770 5767 5763 5759 5754 5750 5745 5740 5734 5729 5724 5718 5712 5705 5699 5692 5684 5676 5667 5659 5650 5642 5633 5626 5618 5611 5603 5597 5590